"Time","Temp","Dewpoint","Humidity","Pressure","Direction","Speed","Gust","Precip","PrecipRate"
"00:04:58","49.9","41","71.4","29.72","323","10.2","24.2","0.00","0.00"
"00:09:56","49.6","40.5","70.7","29.72","324","11.1","25.2","0.00","0.00"
"00:14:57","49.3","39.5","68.8","29.73","327","10.9","28.8","0.00","0.00"
"00:19:58","49.1","39","68.2","29.73","328","13.3","30","0.00","0.00"
"00:24:58","48.9","38.8","68","29.73","332","10.9","24.2","0.00","0.00"
"00:29:58","48.7","38.5","67.8","29.73","314","9.8","23","0.00","0.00"
"00:34:58","48.5","38.1","67.2","29.73","322","10.9","21.9","0.00","0.00"
"00:39:59","48.3","37.5","66.3","29.73","330","13.5","26.5","0.00","0.00"
"00:44:59","48.1","37.6","66.8","29.74","325","7","23","0.00","0.00"
"00:49:56","47.9","37.2","66.3","29.74","328","11.6","30","0.00","0.00"
"00:54:56","47.8","36.9","65.8","29.74","329","10.6","30","0.00","0.00"
"00:59:57","47.7","36.5","65","29.74","325","7.8","19.6","0.00","0.00"
"01:04:57","47.5","36.3","64.8","29.74","321","9.1","26.5","0.00","0.00"
"01:09:56","47.4","36.2","65","29.74","321","9.5","24","0.00","0.00"
"01:14:57","47.3","36","64.9","29.74","323","8.1","27.6","0.00","0.00"
"01:19:57","47.1","35.5","64","29.74","305","10.1","27.6","0.00","0.00"
"01:24:58","47","35.3","63.8","29.74","331","9.5","21.9","0.00","0.00"
"01:29:58","46.9","35.4","64","29.76","335","7.4","17.3","0.00","0.00"
"01:34:59","46.7","35.2","64","29.76","327","6.9","19.6","0.00","0.00"
"01:39:56","46.6","35","63.8","29.76","325","6.5","15.6","0.00","0.00"
"01:44:57","46.3","34.4","63","29.76","320","8.3","17.3","0.00","0.00"
"01:49:57","46.1","34.2","63","29.75","318","7.7","25.3","0.00","0.00"
"01:54:57","45.9","34","63","29.75","325","9.2","24.2","0.00","0.00"
"01:59:58","45.8","34","63.3","29.76","327","8.7","20.7","0.00","0.00"
"02:04:58","45.6","33.7","63","29.76","326","9.2","19.6","0.00","0.00"
"02:09:57","45.5","33.6","63","29.76","325","9.9","24","0.00","0.00"
"02:14:58","45.3","33.4","63","29.77","315","7.4","24.2","0.00","0.00"
"02:19:59","45.2","33.3","63","29.77","336","7.6","21.9","0.00","0.00"
"02:24:59","45.1","33","62.5","29.77","318","6.9","18","0.00","0.00"
"02:29:56","45","32.5","61.4","29.77","329","9.4","21.9","0.00","0.00"
"02:34:57","44.8","31.9","60.2","29.76","335","9.7","27.6","0.00","0.00"
"02:39:58","44.5","31.7","60.4","29.76","326","7","24.2","0.00","0.00"
"02:44:58","44.2","31.6","61","29.77","313","6.8","20.7","0.00","0.00"
"02:49:59","43.9","31.5","61.3","29.77","320","5.4","18.4","0.00","0.00"
"02:54:56","43.6","31.4","62","29.77","339","5.1","15.6","0.00","0.00"
"02:59:59","43.4","31.2","62","29.77","316","5.9","17.3","0.00","0.00"
"03:04:59","43.3","31.2","62.2","29.77","322","7.1","17.3","0.00","0.00"
"03:09:58","43.2","31.1","62","29.77","324","6.9","21.6","0.00","0.00"
"03:14:57","43.1","31","62","29.77","315","7.1","21.9","0.00","0.00"
"03:19:57","43.1","31","62","29.77","332","9.4","20.7","0.00","0.00"
"03:24:58","43","30.9","62","29.77","317","7.8","18.4","0.00","0.00"
"03:29:58","42.8","31.1","63","29.77","303","6.7","17.3","0.00","0.00"
"03:34:58","42.5","30.8","63","29.77","319","7.8","20.7","0.00","0.00"
"03:39:58","42.4","30.9","63.6","29.77","301","8.8","21.9","0.00","0.00"
"03:44:59","42.2","30.9","64","29.77","329","8.2","17.3","0.00","0.00"
"03:49:59","42.1","30.6","63.4","29.77","12","9.2","20.7","0.00","0.00"
"03:54:59","42.1","30.4","63","29.77","325","7.8","16.1","0.00","0.00"
"03:59:56","41.9","30.4","63.5","29.77","323","5.1","14.4","0.00","0.00"
"04:04:56","41.7","30.4","64","29.77","314","5.3","15","0.00","0.00"
"04:09:59","41.5","30.2","64","29.77","318","5.3","20.4","0.00","0.00"
"04:14:56","41.4","30.1","64","29.78","309","7.4","20.7","0.00","0.00"
"04:19:56","41.4","29.9","63.7","29.78","323","5.2","12","0.00","0.00"
"04:24:57","41.3","29.9","63.8","29.78","339","7.5","20.7","0.00","0.00"
"04:29:57","41.3","29.7","63.1","29.78","312","7.6","18.4","0.00","0.00"
"04:34:58","41.4","29.6","62.7","29.78","321","8.4","18.4","0.00","0.00"
"04:39:59","41.4","29.4","62.2","29.78","313","7.1","19.6","0.00","0.00"
"04:44:59","41.2","29.3","62.3","29.79","302","4.6","13.2","0.00","0.00"
"04:49:59","41.1","29.3","62.4","29.79","314","5.6","18.4","0.00","0.00"
"04:54:56","41.1","29.1","62.1","29.79","330","7.3","17.3","0.00","0.00"
"04:59:56","41","29","62.1","29.79","317","4.7","16.1","0.00","0.00"
"05:04:57","40.8","29","62.5","29.79","307","3.5","7.2","0.00","0.00"
"05:09:56","40.7","28.9","62.3","29.79","304","6.5","15","0.00","0.00"
"05:14:56","40.7","28.7","62","29.80","315","5.1","15","0.00","0.00"
"05:19:57","40.6","28.6","62","29.80","332","6.4","16.1","0.00","0.00"
"05:24:57","40.5","28.3","61.4","29.80","338","6.8","25.2","0.00","0.00"
"05:29:58","40.4","28","60.9","29.81","325","8.7","25.3","0.00","0.00"
"05:34:59","40.3","27.9","61","29.81","305","6.3","18.4","0.00","0.00"
"05:39:56","40.2","27.8","61","29.81","333","8.3","22.8","0.00","0.00"
"05:44:57","40.2","27.8","61","29.82","331","8.9","23","0.00","0.00"
"05:49:58","40","27.6","61","29.82","335","4","16.1","0.00","0.00"
"05:54:59","39.9","27.5","61","29.82","342","6.6","15","0.00","0.00"
"05:59:56","39.7","27.5","61.3","29.82","342","5.9","20.4","0.00","0.00"
"06:04:57","39.7","27.5","61.4","29.81","335","8","20.7","0.00","0.00"
"06:09:57","39.6","27.6","62","29.81","348","6.1","17.3","0.00","0.00"
"06:14:58","39.5","27.5","62","29.82","343","8.5","21.9","0.00","0.00"
"06:19:59","39.5","27.5","62","29.82","334","3.2","9.6","0.00","0.00"
"06:24:59","39.3","27.4","62","29.82","327","4.4","10.8","0.00","0.00"
"06:29:57","39.3","27.7","63","29.83","333","3.4","8.1","0.00","0.00"
"06:34:59","39.3","27.7","63","29.83","336","4.8","10.8","0.00","0.00"
"06:39:57","39.3","27.7","63","29.83","307","3.7","12","0.00","0.00"
"06:44:58","39.4","27.8","63","29.83","295","3.9","12","0.00","0.00"
"06:49:59","39.4","27.9","63.3","29.83","305","4.2","15","0.00","0.00"
"06:54:59","39.3","27.7","63","29.83","304","4.2","10.8","0.00","0.00"
"06:59:56","39.4","27.8","63","29.84","299","5.4","12","0.00","0.00"
"07:04:57","39.3","27.7","62.9","29.84","308","4.8","12","0.00","0.00"
"07:09:56","39.3","27.4","62","29.84","305","4.5","10.8","0.00","0.00"
"07:14:57","39.3","27.4","62","29.85","300","5.8","14.4","0.00","0.00"
"07:19:58","39.2","27.3","62","29.85","303","5.5","19.6","0.00","0.00"
"07:24:59","39.1","27.2","62","29.85","329","5.9","13.2","0.00","0.00"
"07:29:56","39.1","27.2","62","29.85","318","5.6","12","0.00","0.00"
"07:34:58","39","27","61.9","29.85","328","5.2","15","0.00","0.00"
"07:39:56","39","26.7","61","29.85","310","6.2","13.2","0.00","0.00"
"07:44:57","39","26.7","61","29.85","313","5.4","13.2","0.00","0.00"
"07:49:58","39","26.8","61.2","29.85","329","5.9","13.2","0.00","0.00"
"07:54:58","39","26.9","61.5","29.85","333","5.2","13.2","0.00","0.00"
"07:59:56","39.1","27","61.5","29.86","327","5.8","16.8","0.00","0.00"
"08:04:56","39.1","26.8","61","29.86","341","5.9","17.3","0.00","0.00"
"08:09:59","39.2","26.8","60.8","29.86","330","6","20.7","0.00","0.00"
"08:14:56","39.3","26.7","60.4","29.86","329","6.7","17.3","0.00","0.00"
"08:19:56","39.3","26.6","60","29.86","324","8.4","17.3","0.00","0.00"
"08:24:58","39.5","26.7","59.9","29.86","322","7","15","0.00","0.00"
"08:29:59","39.7","26.5","59","29.87","321","9","18","0.00","0.00"
"08:34:59","39.9","26.7","58.8","29.87","330","6.6","17.3","0.00","0.00"
"08:39:56","40.2","26.6","58","29.87","316","7.1","18.4","0.00","0.00"
"08:44:56","40.5","26.8","57.9","29.87","318","6.6","17.3","0.00","0.00"
"08:49:57","40.7","26.7","57.3","29.87","308","5.9","16.1","0.00","0.00"
"08:54:57","40.6","27","57.9","29.87","267","4.6","12.7","0.00","0.00"
"08:59:57","40.7","27.1","58","29.87","330","5.2","12","0.00","0.00"
"09:04:58","41","27.5","58.4","29.87","310","3.4","7.2","0.00","0.00"
"09:09:57","41.6","28.2","58.8","29.87","314","4.7","12","0.00","0.00"
"09:14:58","42","27.9","57","29.87","306","5.5","12","0.00","0.00"
"09:19:57","42.2","28.3","57.5","29.87","305","5.3","13.2","0.00","0.00"
"09:24:59","42.7","28.3","56.6","29.87","290","4.8","13.2","0.00","0.00"
"09:29:59","42.5","27.8","55.7","29.87","331","10.5","27.6","0.00","0.00"
"09:34:56","42.6","27.9","55.8","29.87","310","8.4","18.4","0.00","0.00"
"09:39:57","42.7","27.5","54.6","29.87","317","7.5","19.6","0.00","0.00"
"09:44:58","43.1","27.8","54.5","29.87","281","5.6","20.4","0.00","0.00"
"09:49:58","42.7","27.1","53.8","29.87","321","7","20.7","0.00","0.00"
"09:51:17","42.8","27.3","54","29.87","289","5.2","8.4","0.00","0.00"
"09:59:58","43.2","27.1","52.8","29.88","252","6.2","12.7","0.00","0.00"
"10:04:56","43.8","27.6","52.6","29.88","295","5.4","13.2","0.00","0.00"
"10:09:59","43","26.4","51.5","29.88","299","6.6","16.1","0.00","0.00"
"10:14:57","42.7","25.8","51.1","29.88","300","7.9","19.6","0.00","0.00"
"10:19:57","42.5","25.4","50.7","29.88","290","8.2","19.2","0.00","0.00"
"10:24:58","42.7","25.2","49.9","29.88","299","8.5","19.6","0.00","0.00"
"10:29:57","42.9","24.9","48.7","29.89","296","7.5","17.3","0.00","0.00"
"10:34:56","43","25","48.8","29.89","289","6.9","16.1","0.00","0.00"
"10:39:56","42.7","24.2","47.8","29.89","296","8.8","20.7","0.00","0.00"
"10:44:59","42.6","24.4","48.3","29.90","313","7.7","18","0.00","0.00"
"10:49:58","42.8","24.2","47.5","29.90","332","9.1","19.6","0.00","0.00"
"10:54:58","42.8","24.3","47.7","29.90","341","9.1","20.7","0.00","0.00"
"10:59:58","43.6","24.4","46.5","29.90","323","8.1","19.6","0.00","0.00"
"11:04:57","43.4","24.8","47.6","29.89","285","7.6","20.7","0.00","0.00"
"11:09:59","43.6","24.2","46","29.89","340","9.8","20.7","0.00","0.00"
"11:14:59","43.2","24.3","47","29.89","328","8.9","21.9","0.00","0.00"
"11:19:58","43.8","24.8","46.9","29.89","327","7.3","18.4","0.00","0.00"
"11:24:57","44.6","24.8","45.5","29.89","320","5.9","15","0.00","0.00"
"11:29:56","44.4","25.1","46.4","29.89","303","6","14.4","0.00","0.00"
"11:34:56","44.4","25","46.2","29.88","318","8.1","19.6","0.00","0.00"
"11:39:56","44.7","25.9","47.4","29.88","309","5.7","13.2","0.00","0.00"
"11:44:59","44.6","24.7","45.4","29.88","323","7.8","16.8","0.00","0.00"
"11:49:59","44.9","25.9","47.1","29.88","262","5.5","16.1","0.00","0.00"
"11:54:58","45.8","25.9","45.4","29.88","313","7.5","15","0.00","0.00"
"11:59:57","46.7","26.9","46","29.88","306","6.4","20.4","0.00","0.00"
"12:04:57","46.4","25.9","44.4","29.88","321","8.2","20.7","0.00","0.00"
"12:09:59","46.2","25.6","44.3","29.88","294","7","16.1","0.00","0.00"
"12:14:59","46.9","27.6","46.8","29.88","258","4.8","12.7","0.00","0.00"
"12:19:56","47.2","25.5","42.5","29.87","301","7.3","18","0.00","0.00"
"12:24:59","46.4","25.8","44.3","29.87","259","6","16.1","0.00","0.00"
"12:29:59","46.5","25.8","44.3","29.87","296","6.7","15","0.00","0.00"
"12:34:59","47.5","26.3","43.4","29.86","271","7.6","18.4","0.00","0.00"
"12:39:56","46.8","24.6","41.5","29.86","297","6.8","15","0.00","0.00"
"12:44:57","46.3","24.9","42.9","29.86","280","5.8","15","0.00","0.00"
"12:49:56","46.3","24.9","42.8","29.86","270","6.7","16.1","0.00","0.00"
"12:54:56","47","25.8","43.4","29.86","306","4.9","10.8","0.00","0.00"
"12:59:56","48.2","26.8","43.2","29.86","317","5","18.4","0.00","0.00"
"13:04:59","49.6","27.6","42.3","29.85","321","5.2","15","0.00","0.00"
"13:09:58","49.6","26.2","40.1","29.85","312","6","13.2","0.00","0.00"
"13:14:59","48.8","26.2","41.3","29.85","319","5.7","18.4","0.00","0.00"
"13:19:40","47.7","25.5","41.6","29.85","351","4.9","10.4","0.00","0.00"
"13:24:57","48.4","25.5","40.6","29.85","330","4.4","13.2","0.00","0.00"
"13:29:57","48.7","25.5","40.1","29.85","278","7.3","23","0.00","0.00"
"13:32:23","48.8","22.5","35.3","29.85","262","7.8","16.1","0.00","0.00"
"13:39:59","50","23.8","35.6","29.85","264","6.9","16.1","0.00","0.00"
"13:44:57","50.1","24.2","36.1","29.85","265","7.2","17.3","0.00","0.00"
"13:49:58","50.5","24","35.2","29.84","250","8.4","17.3","0.00","0.00"
"13:54:59","50.7","23.4","34.2","29.84","302","8.2","21.6","0.00","0.00"
"13:59:56","49.8","25.2","38.1","29.84","282","7.9","18.4","0.00","0.00"
"14:04:56","48.8","26.2","41.1","29.83","282","7.5","17.3","0.00","0.00"
"14:09:58","49","25","38.9","29.83","280","7.6","16.1","0.00","0.00"
"14:14:59","49","25.2","39.2","29.83","317","9","21.9","0.00","0.00"
"14:19:56","50.1","24.8","37","29.82","322","7.4","23","0.00","0.00"
"14:24:57","50.2","24.2","35.9","29.82","337","9.3","23","0.00","0.00"
"14:29:58","50.1","23","34.4","29.82","283","7.3","13.2","0.00","0.00"
"14:34:59","50.3","24.2","35.8","29.82","263","4.9","12.7","0.00","0.00"
"14:39:56","51.6","24.5","34.5","29.82","259","6.6","15","0.00","0.00"
"14:44:57","51.5","24.9","35.2","29.82","245","7.8","18.4","0.00","0.00"
"14:49:58","51.4","23.7","33.8","29.82","305","6.4","15","0.00","0.00"
"14:54:59","53.4","26.8","35.7","29.82","259","4.1","13.2","0.00","0.00"
"14:59:56","52.7","24.2","32.8","29.82","264","5.2","12.7","0.00","0.00"
"15:04:56","51.1","23.4","33.6","29.81","324","6.3","13.2","0.00","0.00"
"15:09:59","50.6","23.1","33.8","29.81","317","5.5","15","0.00","0.00"
"15:14:57","50.8","23.9","34.8","29.81","307","4.8","15","0.00","0.00"
"15:19:56","51.8","24.3","34","29.80","322","7","16.1","0.00","0.00"
"15:24:57","51.5","23.8","33.8","29.80","294","6.1","16.8","0.00","0.00"
"15:29:58","50.9","23.7","34.4","29.81","285","6","14.4","0.00","0.00"
"15:34:56","50.7","23.2","33.8","29.81","326","6.5","15.6","0.00","0.00"
"15:39:57","50.9","22.8","33.1","29.81","276","6.8","16.1","0.00","0.00"
"15:44:57","51.7","23.9","33.7","29.81","287","6.3","14.4","0.00","0.00"
"15:49:58","51.2","21.6","31","29.81","295","6.1","17.3","0.00","0.00"
"15:54:59","52.4","23.5","32.2","29.81","291","7.8","16.1","0.00","0.00"
"15:59:56","52.6","22.3","30.4","29.81","301","6.8","17.3","0.00","0.00"
"16:04:56","51.6","20.6","29.4","29.81","300","7.2","16.1","0.00","0.00"
"16:09:58","52.4","23.6","32.4","29.81","245","5.2","12.7","0.00","0.00"
"16:14:59","53.2","23.2","30.9","29.81","232","4.6","10.8","0.00","0.00"
"16:19:56","52.8","22.1","29.9","29.81","310","6.7","19.2","0.00","0.00"
"16:24:57","52.4","22.1","30.4","29.81","297","6.3","19.6","0.00","0.00"
"16:29:57","52.5","21.7","29.8","29.81","293","5.4","13.2","0.00","0.00"
"16:34:58","52.3","22.3","30.7","29.81","281","6.5","16.1","0.00","0.00"
"16:39:59","52.1","22.3","31","29.81","248","7.2","15","0.00","0.00"
"16:44:56","52.3","21.4","29.6","29.81","301","7.8","17.3","0.00","0.00"
"16:49:57","52.8","22.8","30.8","29.81","242","6.8","15","0.00","0.00"
"16:54:57","52.8","21.8","29.5","29.81","249","6.8","15","0.00","0.00"
"16:59:58","52.8","22.2","30","29.81","243","7.6","13.2","0.00","0.00"
"17:04:58","52.5","22.2","30.4","29.81","275","4.8","14.4","0.00","0.00"
"17:09:56","52.5","21","28.9","29.81","334","8.5","18.4","0.00","0.00"
"17:14:57","52.5","21.1","29","29.81","285","5.5","13.2","0.00","0.00"
"17:19:58","52.4","20.6","28.5","29.81","296","7.3","18.4","0.00","0.00"
"17:24:59","52.2","21.1","29.3","29.81","301","5.1","10.8","0.00","0.00"
"17:29:56","52.9","22.5","30.3","29.81","243","4.5","13.2","0.00","0.00"
"17:34:56","52.8","21.7","29.3","29.81","278","6","16.1","0.00","0.00"
"17:39:57","52.7","20.7","28.2","29.81","304","5.2","13.2","0.00","0.00"
"17:44:59","52.4","20.6","28.5","29.81","307","5.2","12","0.00","0.00"
"17:49:56","52.3","20.9","28.9","29.81","325","4.2","10.8","0.00","0.00"
"17:54:57","52.2","21.3","29.5","29.81","254","4.7","8.4","0.00","0.00"
"17:59:58","52.1","21.6","29.9","29.81","247","5.5","15","0.00","0.00"
"18:04:58","51.9","20.6","29.1","29.81","258","4.2","11.5","0.00","0.00"
"18:09:56","51.9","21","29.5","29.81","268","3.1","8.4","0.00","0.00"
"18:14:57","51.8","20.7","29.3","29.81","287","4.5","12","0.00","0.00"
"18:19:58","51.6","21.2","30.2","29.81","271","4.2","9.6","0.00","0.00"
"18:24:59","51.3","20.7","29.8","29.81","286","4.2","9.6","0.00","0.00"
"18:29:59","50.9","21.3","30.9","29.82","287","3.5","8.4","0.00","0.00"
"18:34:56","50.7","21.4","31.4","29.82","304","3.6","12","0.00","0.00"
"18:39:58","50.3","21.1","31.5","29.82","312","4.1","11.5","0.00","0.00"
"18:44:59","50","20.6","31.2","29.82","312","4.3","12","0.00","0.00"
"18:49:59","49.6","20.9","32","29.82","323","4.2","12","0.00","0.00"
"18:54:56","49.3","20.8","32.2","29.82","311","3.1","8.4","0.00","0.00"
"18:59:57","49","20.5","32.2","29.83","316","2.8","6.9","0.00","0.00"
"19:04:57","48.8","20.9","33","29.83","317","1.5","4.6","0.00","0.00"
"19:09:59","48.5","21.1","33.6","29.83","331","2.4","7.2","0.00","0.00"
"19:14:57","48.2","20.8","33.6","29.84","309","4.5","12","0.00","0.00"
"19:19:58","47.9","20.5","33.5","29.84","299","4","6.9","0.00","0.00"
"19:24:59","47.6","20.4","33.6","29.84","321","5.5","13.2","0.00","0.00"
"19:29:56","47.3","20.2","33.8","29.84","318","5.6","15","0.00","0.00"
"19:34:58","47.1","20","33.8","29.84","324","4.6","10.8","0.00","0.00"
"19:39:59","46.7","20","34.2","29.84","302","3.5","13.2","0.00","0.00"
"19:44:57","46.5","19.6","34.1","29.86","311","6.6","15","0.00","0.00"
"19:49:58","46.4","19.8","34.5","29.86","320","5.2","15","0.00","0.00"
"19:54:59","46.1","19.6","34.5","29.86","310","4.6","12","0.00","0.00"
"19:59:56","45.9","19.7","34.9","29.87","325","6.6","17.3","0.00","0.00"
"20:04:57","45.7","19.8","35.3","29.87","332","5","11.5","0.00","0.00"
"20:09:59","45.4","19.9","35.9","29.87","306","3.9","9.2","0.00","0.00"
"20:14:56","45","20.1","36.6","29.87","306","3.7","8.4","0.00","0.00"
"20:19:58","44.8","19.5","36.1","29.87","309","6.4","19.6","0.00","0.00"
"20:24:59","44.8","19.8","36.5","29.87","309","5.4","13.2","0.00","0.00"
"20:29:56","44.7","19.5","36.2","29.88","295","7.2","18.4","0.00","0.00"
"20:34:57","44.7","19.3","36","29.88","311","5.9","16.1","0.00","0.00"
"20:39:59","44.5","19.5","36.5","29.88","309","5.9","15","0.00","0.00"
"20:44:57","44.2","19.5","37","29.89","295","5.1","12","0.00","0.00"
"20:49:58","44.1","19.3","36.7","29.89","310","7","20.7","0.00","0.00"
"20:54:59","44.2","19.1","36.4","29.89","311","5.6","16.1","0.00","0.00"
"20:59:57","43.9","19.3","37","29.90","300","5.4","13.2","0.00","0.00"
"21:04:57","43.7","19.3","37.3","29.90","288","4.5","12","0.00","0.00"
"21:09:59","43.5","19.3","37.7","29.90","295","5","12","0.00","0.00"
"21:14:57","43.5","19.6","38.2","29.91","285","4.8","13.2","0.00","0.00"
"21:19:58","43.4","19.7","38.3","29.91","279","4","7.2","0.00","0.00"
"21:24:56","43.2","19.5","38.3","29.91","270","3.2","6.9","0.00","0.00"
"21:29:57","43","19.4","38.4","29.92","283","4.3","12","0.00","0.00"
"21:34:59","43.1","19.6","38.7","29.92","294","4.2","10.8","0.00","0.00"
"21:39:56","43.1","19.4","38.3","29.92","285","4.7","10.8","0.00","0.00"
"21:44:57","43.2","19.4","38.2","29.92","286","4.7","12","0.00","0.00"
"21:49:59","43.1","19.8","39.1","29.92","315","3.8","12","0.00","0.00"
"21:54:56","42.8","20","39.8","29.92","276","2.9","7.2","0.00","0.00"
"21:59:58","42.7","20.1","40.2","29.93","288","4.2","7.2","0.00","0.00"
"22:04:58","42.7","20.1","40.2","29.93","304","3.5","8.4","0.00","0.00"
"22:09:56","42.5","20.3","40.8","29.93","261","3.8","8.4","0.00","0.00"
"22:14:58","42.5","20.3","40.8","29.93","285","4.6","8.4","0.00","0.00"
"22:19:59","42.6","20.5","41","29.93","299","5.1","15","0.00","0.00"
"22:24:59","42.6","20.8","41.5","29.93","303","5.4","13.2","0.00","0.00"
"22:29:57","42.5","20.9","42","29.94","277","4.8","8.4","0.00","0.00"
"22:34:58","42.4","21.2","42.4","29.94","311","4.6","16.1","0.00","0.00"
"22:39:56","42.3","21.4","43","29.94","278","4.3","15","0.00","0.00"
"22:44:57","42.1","21.2","43","29.95","304","6.1","15.6","0.00","0.00"
"22:49:58","42.1","21.4","43.4","29.95","299","7.2","17.3","0.00","0.00"
"22:54:59","42.1","21.7","44","29.95","291","6.3","13.2","0.00","0.00"
"22:59:57","41.9","22.1","45","29.95","321","7.5","16.8","0.00","0.00"
"23:04:57","41.7","22.2","45.6","29.95","307","5.1","15","0.00","0.00"
"23:09:59","41.4","22.6","47","29.95","321","6","15.6","0.00","0.00"
"23:14:57","41.1","22.9","48","29.96","312","5.1","16.1","0.00","0.00"
"23:19:59","40.9","22.9","48.4","29.96","319","7.5","19.2","0.00","0.00"
"23:24:56","40.8","23.1","49","29.96","309","4.3","12.7","0.00","0.00"
"23:29:57","40.7","23.1","49.3","29.97","309","5.7","15","0.00","0.00"
"23:34:58","40.6","23.2","49.5","29.97","288","4.9","15","0.00","0.00"
"23:39:59","40.5","23.1","49.6","29.97","298","4","10.4","0.00","0.00"
"23:44:56","40.4","23.2","50","29.97","321","4.6","12","0.00","0.00"
